INTELSAT 25 (IS-25)

Last updated on Mon Oct 20 2025 00:02:46 GMT+0000 (Coordinated Universal Time)

1 33153U 08034A 25292.26107719 -.00000224 00000+0 00000+0 0 9990 2 33153 2.0836 83.2791 0004404 146.4063 220.8051 1.00273238 63285
UTC large
Height (km)
Speed (km/s)
/
Latitude / Longitude
Inclination (degrees)
Orbital Period (minutes)
Azimuth
Elevation
Range (km)
Doppler Factor

Next 0 passes for location: London (51.5072 / 0.1276)

Sorry there are no passes over London.